Location: Herran
(42.9715°N, 0.9155°E)
Time: 13:06:32
(UTC+00:00)

Daily predictions for brighter satellites

Satellite Brightness Start Highest point End
(mag) Time Altitude Azimuth Time Altitude Azimuth Time Altitude Azimuth
Meteor 1-21 Rocket 4.2 17:22:38 10° S 17:28:04 63° E 17:33:36 10° NNE
Cosmos 1939 Rocket 3.3 17:25:46 10° SE 17:29:37 41° ENE 17:33:26 10° N
Cosmos 44 3.7 17:27:20 10° SW 17:32:05 66° NW 17:37:11 10° NNE
Cosmos 1602 Rocket 4.0 17:28:16 10° SSE 17:32:22 42° E 17:36:31 10° NNE
H-2A R/B 2.1 17:28:03 10° NNE 17:32:26 86° ESE 17:36:42 10° SSW
USA 229 DEB 4.1 17:26:18 10° NNW 17:33:24 52° NE 17:40:52 10° ESE
USA 229 4.1 17:26:24 10° NNW 17:33:30 52° NE 17:40:58 10° ESE
Cosmos 2026 Rocket 4.5 17:28:03 10° SSE 17:33:37 37° E 17:39:17 10° NNE
CZ-3B R/B 2.8 17:32:04 10° NNW 17:34:32 31° NE 17:40:28 10° ESE
SJ 16-02 2.5 17:31:04 10° SW 17:35:18 45° WNW 17:39:32 10° N
SeaSat 1 4.1 17:31:48 10° N 17:36:08 31° NW 17:40:26 10° WSW
FengYun 1-2 T 4.3 17:32:08 10° SSE 17:37:43 86° ENE 17:43:23 10° NNW
Cosmos 158 Rocket 4.4 17:32:50 10° NNW 17:38:12 73° WSW 17:43:34 10° S
Cosmos 2112 Rocket 4.0 17:33:25 10° NNW 17:38:38 66° ENE 17:43:47 10° SSE
Cosmos 990 Rocket 4.0 17:33:30 10° SSW 17:38:42 83° ESE 17:43:54 10° NNE
YAOGAN 1 3.9 17:36:02 10° ESE 17:39:09 20° ENE 17:42:15 10° NNE
Cosmos 1844 Rocket 3.8 17:35:04 10° SW 17:40:27 44° WNW 17:45:52 10° NNE
H-2A R/B 3.3 17:36:53 10° S 17:40:57 56° W 17:45:11 10° NNW
Cosmos 1689 Rocket 4.0 17:41:39 10° ENE 17:42:49 12° E 17:43:57 10° ESE
Aureole 3 Rocket 3.5 17:40:55 10° NNE 17:43:53 28° E 17:47:29 10° SE
COSMOS 2406 3.6 17:39:38 10° NNW 17:45:08 43° ENE 17:50:35 10° SE
Cosmos 2082 Rocket 3.3 17:40:47 10° N 17:45:16 23° NE 17:49:41 10° ESE
Cosmos 1703 3.2 17:42:30 10° S 17:46:21 71° E 17:50:14 10° NNE
IRS-1C Rocket 4.4 17:43:37 10° SE 17:48:31 42° ENE 17:53:26 10° N
X-37B 0.7 17:45:31 10° WNW 17:48:42 65° N 17:51:36 12° E
NOSS 3-1 (A) 4.2 17:41:45 10° NNW 17:49:08 57° NE 17:57:39 10° SE
ISS -1.8 17:48:50 10° NW 17:51:20 19° N 17:53:50 10° NE
Cosmos 1812 Rocket 3.6 17:48:50 10° N 17:53:09 57° E 17:57:24 10° SSE
Okean O Rocket 2.3 17:49:57 10° S 17:54:19 61° WSW 17:58:42 10° NNW
CZ-4 R/B 2.0 17:55:02 10° SE 17:58:39 32° ENE 18:02:12 10° N
Cosmos 2195 Rocket 4.5 17:54:49 10° S 18:01:07 74° E 18:07:27 10° NNE
Iridium 4 Rocket 3.6 17:56:23 10° N 18:01:34 50° E 18:06:16 10° SSE
ERS-2 2.7 17:59:52 10° NNE 18:03:16 36° E 18:06:38 10° SSE
SKYMED 2 3.5 17:58:58 10° NNE 18:03:20 74° ESE 18:07:39 10° S
Okean-O 3.1 18:02:04 10° SE 18:06:08 37° ENE 18:10:14 10° N
Cosmos 1428 Rocket 4.5 18:02:53 10° S 18:09:07 70° E 18:15:25 10° NNE
Cosmos 1340 2.9 18:06:10 10° SSW 18:09:53 71° W 18:13:39 10° N
Cosmos 1346 Rocket 3.1 18:06:43 10° SSE 18:10:25 41° E 18:14:09 10° NNE
Cosmos 2278 Rocket 2.2 18:04:59 10° S 18:10:34 63° ESE 18:16:12 10° NNE
Cosmos 1953 Rocket 4.3 18:10:09 10° SSE 18:13:56 30° E 18:17:45 10° NNE
CZ-2C R/B 3.2 18:09:06 10° SSE 18:14:33 80° ENE 18:20:18 10° N
Cosmos 2292 Rocket 4.4 18:14:20 10° SSE 18:18:39 30° E 18:20:41 20° NE
Cosmos 44 Rocket 3.9 18:16:21 10° S 18:20:47 36° ESE 18:23:19 22° ENE
SAR-Lupe-4 3.7 18:17:50 11° NNE 18:21:13 48° E 18:24:41 10° S
Cosmos 405 2.9 18:19:48 10° N 18:23:20 84° W 18:26:50 10° S
ARGOS 3.4 18:23:09 10° SE 18:28:12 44° ENE 18:33:17 10° N
Meteor 2-19 Rocket 4.4 18:23:50 10° S 18:29:59 80° E 18:36:10 10° N
Cosmos 372 Rocket 3.9 18:29:04 10° SSW 18:34:16 83° ESE 18:39:32 10° NNE
PSLV R/B 3.9 18:30:23 10° NNE 18:34:38 80° ESE 18:38:49 10° S
SAR-Lupe-1 3.9 18:34:05 13° NNE 18:37:18 80° ESE 18:40:53 10° S
CZ-4B R/B 3.3 18:35:12 10° N 18:38:07 29° WNW 18:40:56 10° SW
CZ-2D R/B 4.5 18:35:27 10° S 18:39:07 44° W 18:42:48 10° NNW
CZ-2C R/B 3.1 18:34:30 10° NNE 18:39:44 39° E 18:44:57 10° SSE
Cosmos 2150 Rocket 4.1 18:38:35 10° S 18:43:32 49° ESE 18:45:58 28° NE
MOS 1 Rocket 4.1 18:41:57 10° N 18:46:04 47° WNW 18:50:15 10° SW
Cosmos 1048 Rocket 4.1 18:42:41 10° N 18:47:39 47° ENE 18:49:37 32° ESE
Cosmos-2242 3.3 18:43:45 10° NNW 18:48:03 68° W 18:52:20 10° S
COSMO-SKYMED 1 4.2 18:47:20 10° N 18:51:15 34° WNW 18:55:10 10° SW
Cosmos 2297 4.2 18:46:13 10° SSE 18:51:17 35° ESE 18:51:23 35° ESE
USA 290 3.6 18:53:20 10° NW 18:56:20 38° WSW 18:59:18 10° S
SL-08 RB Rocket 3.6 18:59:18 53° ESE 18:59:52 58° ENE 19:04:16 10° N
USA 276 4.0 18:57:17 10° SSW 18:58:53 23° S 18:58:53 23° S
CSL-04 Debris 4.0 18:56:36 10° SSE 19:01:59 85° ENE 19:07:24 10° NNW
Helios 1A Rocket 3.2 19:00:47 10° S 19:04:53 69° WSW 19:09:03 10° NNW
H-2A R/B 2.5 19:01:38 10° S 19:06:36 60° W 19:11:46 10° NNW
Cosmos 1125 Rocket 3.4 19:03:03 10° S 19:08:10 60° ESE 19:08:41 57° ENE
Cosmos 1809 Rocket 4.3 19:02:35 10° S 19:08:39 73° E 19:14:48 10° NNE
Cosmos 1833 Rocket 3.6 19:04:19 10° NW 19:09:43 49° WSW 19:15:05 10° S
Cosmos 2298 Rocket 4.0 19:05:29 10° SSW 19:10:48 87° WNW 19:13:35 30° NNE
Cosmos 2266 Rocket 3.8 19:06:38 10° S 19:12:50 70° E 19:18:57 10° NNE
Cosmos 1689 Rocket 4.2 19:13:24 23° NW 19:13:51 24° WNW 19:16:13 10° SW
YAOGAN 1 3.9 19:10:53 10° S 19:14:57 40° W 19:19:03 10° NNW
In-Cosmos 22 Rocket 4.2 19:16:46 10° SSW 19:22:34 82° W 19:28:17 10° N
X-37B 2.9 19:22:15 10° W 19:23:55 25° W 19:23:55 25° W
Cosmos 1943 Rocket 3.7 19:21:27 10° S 19:23:18 21° SSE 19:23:18 21° SSE
ISS -1.0 19:26:07 10° NW 19:26:49 14° NNW 19:26:49 14° NNW
Cosmos 2082 Rocket 2.6 19:24:10 10° NNW 19:29:49 63° WSW 19:33:42 20° S
CZ-4 R/B 4.0 19:30:44 10° SW 19:33:43 20° W 19:36:41 10° NW
Meteor 2-21 4.4 19:32:22 10° SSW 19:38:27 78° W 19:44:37 10° N
NOSS 2-2 (E) 4.5 19:37:41 10° NNW 19:43:28 77° NE 19:43:31 77° ENE
Cosmos 2315 Rocket 4.0 19:41:11 10° N 19:46:33 68° N 19:46:33 68° N
Cosmos 883 Rocket 4.5 19:42:02 10° N 19:48:14 78° W 19:50:11 46° S
USA 234 4.3 19:53:13 32° N 19:53:13 32° N 19:58:25 10° NW
Cosmos 2278 Rocket 4.3 19:50:44 10° WSW 19:55:07 23° NW 19:59:05 12° N
CZ-4C R/B 4.4 19:53:48 10° NNW 19:56:58 18° N 19:56:58 18° N
CZ-2C R/B 4.3 20:15:09 11° N 20:19:52 31° WNW 20:24:44 10° SW
ATLAS 5 CENTAUR R/B 4.2 20:18:14 10° SSW 20:39:15 68° SSW 20:39:15 68° SSW
